Location: Tierra del Sol
(32.6128°N, 116.3319°W)
Time: 23:42:34
(UTC-08:00)

Amateur Radio Satellites - All Passes

Search period start: 08 February 2016 23:12
Search period end: 09 February 2016 23:12
Location: Tierra del Sol, 32.6128°N, 116.3319°W

Satellite Date Start Highest point End Downlink Frequencies (MHz)
Time Altitude Azimuth
QB50P1 08 Feb 23:13:32 23:17:44 79° 283° (WNW) 23:21:55 145.935-145.965
50 SAT 08 Feb 23:30:44 23:31:48 11° 267° (W) 23:32:52 437.505
VELOX 1 08 Feb 23:36:33 23:39:24 17° 265° (W) 23:42:17 145.980
ISS 08 Feb 23:48:09 23:50:58 28° 230° (SW) 23:53:48 145.825
SWISSCUBE 09 Feb 00:05:06 00:08:18 18° 68° (ENE) 00:11:30 437.505
POLYITAN 1 09 Feb 00:06:49 00:09:40 18° 291° (WNW) 00:12:31 437.675
QB50P2 09 Feb 00:07:37 00:10:22 17° 291° (WNW) 00:13:07 145.880/145.840
BUGSAT 1 09 Feb 00:15:07 00:18:35 28° 288° (WNW) 00:22:02 437.445
SPROUT 09 Feb 00:23:08 00:25:53 17° 265° (W) 00:28:39 437.525
TISAT 1 09 Feb 00:34:59 00:38:47 32° 262° (W) 00:42:36 437.305
PHONESAT 2.4 09 Feb 00:38:23 00:41:39 84° 330° (NNW) 00:44:57 2401.200-2431.200
ITUPSAT 1 09 Feb 00:39:58 00:44:21 38° 72° (ENE) 00:48:47 437.325
CUSAT 1 09 Feb 00:46:04 00:53:13 44° 90° (E) 01:00:48 437.405
BEESAT 09 Feb 00:48:56 00:53:30 49° 74° (ENE) 00:58:06 436.000
DANDE 09 Feb 01:10:55 01:17:34 39° 88° (E) 01:25:07 436.750
JAS-2 09 Feb 01:13:52 01:19:18 54° 100° (E) 01:24:22 435.910
Oscar 19 09 Feb 01:19:03 01:24:12 83° 283° (WNW) 01:29:18 437.125/150
BEESAT 3 09 Feb 01:27:19 01:30:11 19° 54° (NE) 01:33:03 437.485
Cosmos 2491 09 Feb 01:32:36 01:40:51 44° 78° (ENE) 01:49:05 435.465 / 435.565
SWISSCUBE 09 Feb 01:41:23 01:45:46 37° 261° (W) 01:50:12 437.505
Gurwin Techsat 1B 09 Feb 01:41:48 01:47:03 57° 101° (E) 01:52:15 435.225
BEESAT 2 09 Feb 01:49:32 01:52:38 21° 54° (NE) 01:55:42 435.950
PHONESAT 2.4 09 Feb 02:16:29 02:19:14 24° 349° (N) 02:21:58 2401.200-2431.200
YUBILEINY 09 Feb 02:16:56 02:25:01 43° 88° (E) 02:33:09 435.215
ITUPSAT 1 09 Feb 02:19:12 02:22:17 17° 265° (W) 02:25:23 437.325
AO-7 09 Feb 02:20:42 02:26:48 22° 96° (E) 02:32:51 29.400- 29.500
ITAMSAT 1 09 Feb 02:25:34 02:30:50 80° 103° (ESE) 02:36:04 435.822/435.867
CUSAT 1 09 Feb 02:28:33 02:35:31 36° 286° (WNW) 02:42:50 437.405
BEESAT 09 Feb 02:29:22 02:31:30 13° 267° (W) 02:33:40 436.000
STARS 09 Feb 02:30:34 02:34:43 42° 73° (ENE) 02:38:52 437.465
MOZHAYETS 4 09 Feb 02:31:47 02:35:42 29° 71° (ENE) 02:39:37
KKS-1 09 Feb 02:44:44 02:49:10 65° 259° (WSW) 02:53:36 437.445
DANDE 09 Feb 02:53:34 03:00:24 39° 286° (WNW) 03:08:09 436.750
JAS-2 09 Feb 03:00:49 03:03:46 15° 297° (WNW) 03:06:37 435.910
BEESAT 3 09 Feb 03:04:33 03:07:55 27° 248° (WSW) 03:11:15 437.485
M-CUBED/EXP-1 PRIME 09 Feb 03:08:52 03:10:55 15° 102° (ESE) 03:13:03 437.505
AUBIESAT-1 09 Feb 03:19:16 03:21:37 17° 102° (ESE) 03:24:04 437.475
Gurwin Techsat 1B 09 Feb 03:23:33 03:26:27 15° 295° (WNW) 03:29:21 435.225
BEESAT 2 09 Feb 03:27:12 03:30:27 24° 249° (WSW) 03:33:39 435.950
Cosmos 2491 09 Feb 03:29:51 03:37:20 33° 274° (W) 03:44:53 435.465 / 435.565
AIST 2 09 Feb 03:36:56 03:40:36 31° 56° (ENE) 03:44:16 435.215
SO-50 09 Feb 03:51:22 03:55:46 35° 112° (ESE) 04:00:13 436.795
PHONESAT 2.4 09 Feb 03:54:33 03:57:08 21° 6° (N) 03:59:42 2401.200-2431.200
HORYU 2 09 Feb 04:07:22 04:11:49 75° 102° (ESE) 04:16:15 437.375
ITAMSAT 1 09 Feb 04:08:44 04:09:34 10° 297° (WNW) 04:10:24 435.822/435.867
STARS 09 Feb 04:09:07 04:11:13 13° 266° (W) 04:13:19 437.465
MOZHAYETS 4 09 Feb 04:09:25 04:12:49 21° 265° (W) 04:16:15
AO-7 09 Feb 04:11:46 04:19:59 66° 291° (WNW) 04:28:09 29.400- 29.500
YUBILEINY 09 Feb 04:14:03 04:21:47 34° 285° (WNW) 04:29:38 435.215
Cosmos 2504 09 Feb 04:24:17 04:32:32 63° 91° (E) 04:41:14 435.465 / 435.565
M-CUBED/EXP-1 PRIME 09 Feb 04:42:45 04:45:31 23° 291° (WNW) 04:48:24 437.505
CUBESAT XI-V 09 Feb 04:46:09 04:50:49 85° 75° (ENE) 04:55:33 437.345
AUBIESAT-1 09 Feb 04:53:25 04:56:07 21° 292° (WNW) 04:58:56 437.475
STRAND 1 09 Feb 05:07:34 05:10:52 18° 66° (ENE) 05:14:11 437.568
AIST 2 09 Feb 05:16:07 05:18:51 17° 251° (WSW) 05:21:33 435.215
PHONESAT 2.4 09 Feb 05:31:38 05:34:49 51° 22° (NNE) 05:38:01 2401.200-2431.200
SO-50 09 Feb 05:32:21 05:36:17 24° 307° (NW) 05:40:18 436.795
CUTE-I 09 Feb 05:36:32 05:41:38 42° 99° (E) 05:46:42 437.470
Cubesat XI-IV 09 Feb 05:49:50 05:55:09 58° 101° (E) 06:00:26 437.490
LilacSat-2 09 Feb 06:05:31 06:09:19 89° 96° (E) 06:13:06 437.200
AO-7 09 Feb 06:09:00 06:11:09 11° 308° (NW) 06:13:19 29.400- 29.500
GOMX 1 09 Feb 06:12:31 06:15:50 21° 95° (E) 06:19:02 467.674
Cosmos 2504 09 Feb 06:19:53 06:26:27 24° 289° (WNW) 06:33:17 435.465 / 435.565
O/OREOS (USA 219) 09 Feb 06:37:57 06:41:06 19° 101° (E) 06:44:16 437.305
BRITE-PL 09 Feb 06:39:54 06:44:36 75° 283° (WNW) 06:48:55 437.365/2234.400
PRISM 09 Feb 06:42:45 06:46:45 50° 74° (ENE) 06:50:48 437.425
STRAND 1 09 Feb 06:44:47 06:49:38 45° 260° (W) 06:54:32 437.568
PHONESAT 2.4 09 Feb 07:09:19 07:11:56 22° 216° (SW) 07:14:33 2401.200-2431.200
HO-68 09 Feb 07:16:08 07:22:29 33° 98° (E) 07:28:45 435.675
CUTE-I 09 Feb 07:17:29 07:21:19 20° 293° (WNW) 07:25:08 437.470
COMPASS 1 09 Feb 07:22:33 07:24:37 13° 93° (E) 07:26:40 437.405
CUTE 1.7 + AOD 2 09 Feb 07:26:14 07:29:59 29° 97° (E) 07:33:43 437.475
JUGNU 09 Feb 07:29:56 07:33:27 16° 167° (SSE) 07:36:56 437.505
Cubesat XI-IV 09 Feb 07:31:44 07:34:40 15° 295° (WNW) 07:37:36 437.490
SEEDS 09 Feb 07:34:02 07:37:38 26° 97° (E) 07:41:14 437.485
DOVE 4 09 Feb 07:34:25 07:38:38 78° 282° (WNW) 07:42:45 437.250
Cosmos 2499 09 Feb 07:42:24 07:44:04 11° 77° (ENE) 07:45:46 435.465 / 435.565
GONETS M04 09 Feb 07:42:35 07:50:05 34° 86° (E) 07:57:34
GOMX 1 09 Feb 07:50:22 07:53:52 24° 290° (WNW) 07:57:14 467.674
AAUSAT CUBESAT 2 09 Feb 07:50:43 07:54:09 24° 96° (E) 07:57:34 437.432
ZACube-1 09 Feb 08:09:36 08:10:52 11° 93° (E) 08:12:09 437.345
CANX-2 09 Feb 08:10:46 08:15:01 65° 284° (WNW) 08:19:16 2200.000
O/OREOS (USA 219) 09 Feb 08:16:20 08:20:14 29° 295° (WNW) 08:24:10 437.305
FUNcube-1 09 Feb 08:18:08 08:20:22 14° 94° (E) 08:22:37 145.935
CINEMA 3 09 Feb 08:34:02 08:38:01 47° 285° (WNW) 08:42:03 145.822/145.860
CUBEBUG 2 09 Feb 08:45:20 08:49:31 72° 102° (ESE) 08:53:48 437.445
UWE-3 09 Feb 08:47:35 08:51:43 52° 100° (E) 08:55:55 435.000/436.395/437.385
Oscar 11 09 Feb 08:50:34 08:54:48 51° 100° (E) 08:59:02 145.826/435.025
AO-85 09 Feb 08:52:13 08:56:13 22° 108° (ESE) 09:00:21 145.980
RS-15 09 Feb 08:52:59 08:56:17 12° 97° (E) 08:59:35 29.354- 29.394
COMPASS 1 09 Feb 08:56:23 09:00:18 38° 286° (WNW) 09:04:12 437.405
UNISAT 6 09 Feb 08:57:53 09:01:46 33° 73° (ENE) 09:05:37 437.425
CUTE 1.7 + AOD 2 09 Feb 09:02:37 09:05:35 18° 290° (WNW) 09:08:32 437.475
HO-68 09 Feb 09:03:34 09:10:08 40° 293° (WNW) 09:16:41 435.675
SRMSAT 09 Feb 09:05:18 09:08:06 14° 165° (SSE) 09:10:54 437.500
DELFI C3 09 Feb 09:09:35 09:13:27 43° 99° (E) 09:17:18 145.870
SEEDS 09 Feb 09:10:03 09:13:08 20° 290° (WNW) 09:16:15 437.485
JUGNU 09 Feb 09:17:20 09:21:51 23° 177° (S) 09:26:19 437.505
POLYITAN 1 09 Feb 09:20:28 09:22:24 13° 68° (ENE) 09:24:19 437.675
QB50P2 09 Feb 09:20:58 09:23:04 14° 68° (ENE) 09:25:11 145.880/145.840
AAUSAT CUBESAT 2 09 Feb 09:26:19 09:29:29 21° 289° (WNW) 09:32:39 437.432
Cosmos 2499 09 Feb 09:27:01 09:35:34 75° 93° (E) 09:44:26 435.465 / 435.565
GONETS M04 09 Feb 09:38:29 09:46:34 43° 282° (WNW) 09:54:44
ANTELSAT 09 Feb 09:42:26 09:46:47 68° 259° (W) 09:51:03 437.575/2403.000
ZACube-1 09 Feb 09:43:17 09:47:19 45° 285° (WNW) 09:51:25 437.345
POPSAT HIP 1 09 Feb 09:49:11 09:52:48 28° 72° (ENE) 09:56:25 437.405
TIGRISAT 09 Feb 09:49:36 09:53:53 58° 259° (W) 09:58:07 435.000
FUNcube-1 09 Feb 09:52:49 09:56:42 36° 286° (WNW) 10:00:38 145.935
NANOSAT C BR1 09 Feb 09:54:08 09:57:53 31° 72° (ENE) 10:01:37 145.865
DUCHIFAT 1 09 Feb 09:55:51 09:59:35 31° 72° (ENE) 10:03:19 145.980
QB50P1 09 Feb 10:01:29 10:05:27 40° 74° (ENE) 10:09:26 145.935-145.965
HUMSAT D 09 Feb 10:07:14 10:11:26 90° 103° (ESE) 10:15:40 437.325/437.525
PCSat 09 Feb 10:07:33 10:12:54 66° 112° (ESE) 10:18:17 145.827
AISAT 09 Feb 10:11:13 10:13:48 15° 94° (E) 10:16:23 437.250
AIST 1 09 Feb 10:21:30 10:25:54 83° 279° (W) 10:30:19
UKube-1 09 Feb 10:26:51 10:30:03 20° 96° (E) 10:33:14 .
UWE-3 09 Feb 10:27:08 10:27:43 10° 293° (WNW) 10:28:18 435.000/436.395/437.385
Oscar 11 09 Feb 10:29:05 10:30:27 11° 293° (WNW) 10:31:48 145.826/435.025
ESTCUBE 1 09 Feb 10:29:33 10:33:30 29° 97° (E) 10:37:25 437.505/2401.250
AO-85 09 Feb 10:31:26 10:36:26 42° 303° (WNW) 10:41:37 145.980
CUBEBUG 1 09 Feb 10:32:00 10:35:21 21° 96° (E) 10:38:39 437.445
UNISAT 6 09 Feb 10:35:51 10:38:32 16° 265° (W) 10:41:11 437.425
DX 1 09 Feb 10:37:13 10:41:08 32° 98° (E) 10:45:01 434.975-435.025
DELFI C3 09 Feb 10:46:40 10:47:56 11° 292° (WNW) 10:49:11 145.870
SRMSAT 09 Feb 10:52:13 10:56:37 22° 174° (S) 11:01:01 437.500
POLYITAN 1 09 Feb 10:53:48 10:57:49 41° 261° (W) 11:01:50 437.675
QB50P2 09 Feb 10:54:31 10:58:30 39° 261° (W) 11:02:30 145.880/145.840
RS-15 09 Feb 10:55:32 11:06:28 75° 114° (ESE) 11:17:59 29.354- 29.394
BUGSAT 1 09 Feb 10:59:25 11:03:39 82° 260° (W) 11:07:51 437.445
50 SAT 09 Feb 11:03:40 11:07:29 88° 282° (WNW) 11:11:18 437.505
JUGNU 09 Feb 11:05:57 11:10:15 21° 187° (S) 11:14:32 437.505
JAS-2 09 Feb 11:21:13 11:26:18 20° 65° (ENE) 11:31:08 435.910
Cosmos 2499 09 Feb 11:23:28 11:29:28 20° 290° (WNW) 11:35:37 435.465 / 435.565
POPSAT HIP 1 09 Feb 11:25:36 11:28:33 18° 265° (W) 11:31:31 437.405
VELOX 1 09 Feb 11:29:29 11:33:51 61° 285° (WNW) 11:38:09 145.980
NANOSAT C BR1 09 Feb 11:30:59 11:33:39 16° 265° (W) 11:36:18 145.865
CUSAT 1 09 Feb 11:31:31 11:34:38 15° 65° (ENE) 11:37:21 437.405
DUCHIFAT 1 09 Feb 11:32:39 11:35:18 16° 265° (W) 11:37:58 145.980
QB50P1 09 Feb 11:39:31 11:41:21 13° 266° (W) 11:43:13 145.935-145.965
AISAT 09 Feb 11:46:20 11:50:22 36° 287° (WNW) 11:54:21 437.250
PCSat 09 Feb 11:53:39 11:56:45 15° 309° (NW) 11:59:53 145.827
DANDE 09 Feb 11:59:24 12:04:04 20° 66° (ENE) 12:07:58 436.750
UKube-1 09 Feb 12:02:25 12:06:02 27° 289° (WNW) 12:09:38 .
ESTCUBE 1 09 Feb 12:06:42 12:10:05 21° 291° (WNW) 12:13:27 437.505/2401.250
CUBEBUG 1 09 Feb 12:07:58 12:11:32 25° 289° (WNW) 12:15:06 437.445
SPROUT 09 Feb 12:12:03 12:16:17 68° 284° (WNW) 12:20:29 437.525
DX 1 09 Feb 12:14:12 12:17:02 17° 292° (WNW) 12:19:52 434.975-435.025
TISAT 1 09 Feb 12:23:05 12:27:10 51° 100° (E) 12:31:12 437.305
SO-50 09 Feb 12:29:26 12:30:49 11° 46° (NE) 12:32:11 436.795
Oscar 19 09 Feb 12:31:08 12:36:20 90° 80° (E) 12:41:32 437.125/150
YUBILEINY 09 Feb 12:34:37 12:39:35 16° 68° (ENE) 12:44:31 435.215
SRMSAT 09 Feb 12:40:41 12:45:11 23° 184° (S) 12:49:42 437.500
ITUPSAT 1 09 Feb 12:46:25 12:49:01 14° 94° (E) 12:51:36 437.325
BEESAT 09 Feb 12:54:34 12:57:53 18° 95° (E) 13:01:11 436.000
JUGNU 09 Feb 12:56:11 12:58:35 13° 196° (SSW) 13:00:59 437.505
Gurwin Techsat 1B 09 Feb 12:58:19 13:03:30 58° 74° (ENE) 13:08:43 435.225
JAS-2 09 Feb 13:02:52 13:10:40 74° 258° (WSW) 13:17:56 435.910
RS-15 09 Feb 13:10:32 13:19:57 30° 316° (NW) 13:29:52 29.354- 29.394
CUSAT 1 09 Feb 13:12:23 13:17:27 39° 270° (W) 13:21:19 437.405
AO-7 09 Feb 13:15:32 13:21:32 22° 59° (ENE) 13:27:31 29.400- 29.500
ITAMSAT 1 09 Feb 13:38:57 13:44:06 76° 75° (ENE) 13:49:18 435.822/435.867
DANDE 09 Feb 13:41:15 13:47:36 47° 270° (W) 13:52:24 436.750
SWISSCUBE 09 Feb 13:45:37 13:50:26 79° 101° (E) 13:55:14 437.505
TISAT 1 09 Feb 14:01:52 14:02:20 10° 294° (WNW) 14:02:48 437.305
AUBIESAT-1 09 Feb 14:03:57 14:04:48 11° 65° (ENE) 14:05:38 437.475
SO-50 09 Feb 14:07:10 14:11:57 82° 243° (WSW) 14:16:32 436.795
ITUPSAT 1 09 Feb 14:22:25 14:27:01 46° 287° (WNW) 14:31:36 437.325
Cosmos 2504 09 Feb 14:25:16 14:30:20 17° 67° (ENE) 14:35:10 435.465 / 435.565
STARS 09 Feb 14:27:13 14:28:11 11° 93° (E) 14:29:08 437.465
Cosmos 2491 09 Feb 14:27:38 14:36:06 59° 91° (E) 14:44:35 435.465 / 435.565
YUBILEINY 09 Feb 14:28:32 14:37:25 86° 266° (W) 14:46:13 435.215
SRMSAT 09 Feb 14:30:23 14:33:44 15° 194° (SSW) 14:37:06 437.500
BEESAT 09 Feb 14:31:21 14:35:43 36° 288° (WNW) 14:40:04 436.000
KKS-1 09 Feb 14:40:28 14:44:29 33° 98° (E) 14:48:28 437.445
Gurwin Techsat 1B 09 Feb 14:41:14 14:43:44 13° 267° (W) 14:46:16 435.225
ISS 09 Feb 14:47:43 14:50:56 72° 135° (SE) 14:54:11 145.825
HORYU 2 09 Feb 15:01:05 15:05:09 38° 73° (ENE) 15:09:14 437.375
AO-7 09 Feb 15:05:07 15:13:27 72° 254° (WSW) 15:21:51 29.400- 29.500
M-CUBED/EXP-1 PRIME 09 Feb 15:25:24 15:28:59 40° 255° (WSW) 15:32:21 437.505
AUBIESAT-1 09 Feb 15:35:36 15:39:06 36° 256° (WSW) 15:42:23 437.475
RS-15 09 Feb 15:36:17 15:38:21 10° 351° (N) 15:40:26 29.354- 29.394
BEESAT 2 09 Feb 15:40:00 15:41:02 11° 108° (ESE) 15:42:04 435.950
STARS 09 Feb 16:00:33 16:04:46 50° 286° (WNW) 16:08:58 437.465
MOZHAYETS 4 09 Feb 16:07:33 16:12:08 63° 285° (WNW) 16:16:43
Cosmos 2504 09 Feb 16:16:09 16:24:43 81° 266° (W) 16:32:37 435.465 / 435.565
KKS-1 09 Feb 16:17:51 16:20:45 17° 292° (WNW) 16:23:40 437.445
ISS 09 Feb 16:26:27 16:27:43 12° 330° (NNW) 16:28:59 145.825
Cosmos 2491 09 Feb 16:26:35 16:33:21 25° 288° (WNW) 16:40:09 435.465 / 435.565
YUBILEINY 09 Feb 16:29:23 16:32:47 13° 282° (WNW) 16:36:12 435.215
HORYU 2 09 Feb 16:39:21 16:41:49 15° 266° (W) 16:44:17 437.375
LilacSat-2 09 Feb 16:43:51 16:46:49 22° 72° (ENE) 16:49:46 437.200
CUBESAT XI-V 09 Feb 16:47:45 16:51:53 30° 97° (E) 16:55:58 437.345
BEESAT 3 09 Feb 16:50:50 16:54:43 53° 300° (WNW) 16:58:38 437.485
O/OREOS (USA 219) 09 Feb 16:51:50 16:55:08 19° 62° (ENE) 16:58:25 437.305
CUTE-I 09 Feb 16:53:55 16:58:56 45° 72° (ENE) 17:03:59 437.470
Cubesat XI-IV 09 Feb 17:07:19 17:12:32 61° 74° (ENE) 17:17:48 437.490
BEESAT 2 09 Feb 17:14:36 17:18:28 46° 301° (WNW) 17:22:21 435.950
GOMX 1 09 Feb 17:15:39 17:19:26 20° 69° (ENE) 17:23:08 467.674
AIST 2 09 Feb 17:30:55 17:33:56 20° 110° (ESE) 17:36:57 435.215
HO-68 09 Feb 17:42:31 17:46:23 16° 59° (ENE) 17:50:16 435.675
BRITE-PL 09 Feb 17:44:17 17:49:58 76° 77° (ENE) 17:55:35 437.365/2234.400
RS-15 09 Feb 17:51:26 17:58:43 17° 30° (NNE) 18:06:03 29.354- 29.394
GONETS M04 09 Feb 18:01:15 18:04:07 12° 65° (ENE) 18:06:59
Cosmos 2504 09 Feb 18:14:34 18:16:28 11° 284° (WNW) 18:18:21 435.465 / 435.565
CUTE 1.7 + AOD 2 09 Feb 18:16:32 18:18:13 12° 68° (ENE) 18:19:53 437.475
LilacSat-2 09 Feb 18:18:18 18:21:01 19° 264° (W) 18:23:45 437.200
SEEDS 09 Feb 18:24:06 18:25:00 11° 67° (ENE) 18:25:55 437.485
CUBESAT XI-V 09 Feb 18:25:31 18:29:02 21° 291° (WNW) 18:32:33 437.345
O/OREOS (USA 219) 09 Feb 18:30:28 18:34:33 32° 257° (WSW) 18:38:39 437.305
DOVE 4 09 Feb 18:34:16 18:39:23 63° 75° (ENE) 18:44:16 437.250
CUTE-I 09 Feb 18:35:36 18:39:07 18° 266° (W) 18:42:40 437.470
Cubesat XI-IV 09 Feb 18:50:41 18:52:56 13° 267° (W) 18:55:11 437.490
GOMX 1 09 Feb 18:51:56 18:57:09 44° 261° (W) 19:02:12 467.674
CANX-2 09 Feb 18:58:55 19:02:56 47° 75° (ENE) 19:06:59 2200.000
STRAND 1 09 Feb 18:59:32 19:04:44 89° 116° (ESE) 19:09:53 437.568
PCSat 09 Feb 19:00:50 19:04:55 21° 54° (NE) 19:08:59 145.827
AO-85 09 Feb 19:08:00 19:12:58 56° 59° (ENE) 19:17:28 145.980
AIST 2 09 Feb 19:08:35 19:12:13 28° 304° (NW) 19:15:52 435.215
HO-68 09 Feb 19:25:59 19:33:10 84° 254° (WSW) 19:40:24 435.675
Cosmos 2499 09 Feb 19:26:32 19:32:08 19° 69° (ENE) 19:37:26 435.465 / 435.565
BRITE-PL 09 Feb 19:26:54 19:28:47 12° 269° (W) 19:30:41 437.365/2234.400
CINEMA 3 09 Feb 19:30:26 19:35:10 86° 75° (ENE) 19:39:41 145.822/145.860
CUBEBUG 2 09 Feb 19:39:14 19:43:09 33° 74° (ENE) 19:46:59 437.445
UWE-3 09 Feb 19:40:49 19:44:16 24° 72° (ENE) 19:47:39 435.000/436.395/437.385
Oscar 11 09 Feb 19:41:30 19:44:50 22° 71° (ENE) 19:48:09 145.826/435.025
COMPASS 1 09 Feb 19:42:09 19:46:16 76° 78° (ENE) 19:50:26 437.405
CUTE 1.7 + AOD 2 09 Feb 19:49:38 19:53:37 43° 261° (W) 19:57:39 437.475
DELFI C3 09 Feb 19:53:03 19:55:11 14° 69° (ENE) 19:57:18 145.870
GONETS M04 09 Feb 19:53:27 20:02:18 78° 84° (E) 20:11:08
SEEDS 09 Feb 19:56:12 20:00:14 49° 261° (W) 20:04:18 437.485
RS-15 09 Feb 20:02:32 20:14:34 58° 56° (ENE) 20:26:37 29.354- 29.394
PRISM 09 Feb 20:04:08 20:08:10 49° 286° (WNW) 20:12:10 437.425
AAUSAT CUBESAT 2 09 Feb 20:11:04 20:15:07 56° 260° (W) 20:19:11 437.432
DOVE 4 09 Feb 20:15:37 20:17:17 11° 267° (W) 20:18:56 437.250
ZACube-1 09 Feb 20:34:17 20:38:32 76° 76° (ENE) 20:42:42 437.345
AIST 1 09 Feb 20:34:43 20:37:19 15° 75° (ENE) 20:39:52
CANX-2 09 Feb 20:38:19 20:39:00 10° 268° (W) 20:39:42 2200.000
PCSat 09 Feb 20:43:21 20:48:29 45° 250° (WSW) 20:53:36 145.827
FUNcube-1 09 Feb 20:43:24 20:47:38 87° 255° (WSW) 20:51:50 145.935
AO-85 09 Feb 20:50:51 20:52:46 12° 255° (WSW) 20:54:37 145.980
HUMSAT D 09 Feb 20:54:27 20:58:06 32° 73° (ENE) 21:01:44 437.325/437.525
CUBEBUG 2 09 Feb 21:17:10 21:19:49 16° 265° (W) 21:22:25 437.445
UWE-3 09 Feb 21:17:21 21:20:38 21° 264° (W) 21:23:53 435.000/436.395/437.385
Oscar 11 09 Feb 21:17:21 21:20:48 24° 264° (W) 21:24:18 145.826/435.025
Cosmos 2499 09 Feb 21:17:48 21:26:01 68° 268° (W) 21:33:33 435.465 / 435.565
UKube-1 09 Feb 21:19:56 21:20:25 10° 65° (ENE) 21:20:53 .
HO-68 09 Feb 21:20:18 21:21:38 11° 269° (W) 21:22:59 435.675
ISS 09 Feb 21:20:19 21:21:43 12° 31° (NNE) 21:23:07 145.825
ESTCUBE 1 09 Feb 21:25:44 21:28:31 16° 68° (ENE) 21:31:20 437.505/2401.250
CUBEBUG 1 09 Feb 21:25:44 21:27:00 11° 66° (ENE) 21:28:17 437.445
DELFI C3 09 Feb 21:26:13 21:29:46 32° 262° (W) 21:33:22 145.870
DX 1 09 Feb 21:29:18 21:32:08 17° 68° (ENE) 21:34:58 434.975-435.025
ANTELSAT 09 Feb 21:38:39 21:42:36 33° 98° (E) 21:46:37 437.575/2403.000
50 SAT 09 Feb 21:40:14 21:43:05 21° 72° (ENE) 21:45:57 437.505
TIGRISAT 09 Feb 21:45:27 21:49:31 38° 99° (E) 21:53:39 435.000
GONETS M04 09 Feb 21:52:49 21:58:01 17° 279° (W) 22:03:14
AIST 1 09 Feb 22:11:06 22:14:57 32° 269° (W) 22:18:46
RS-15 09 Feb 22:15:46 22:26:29 38° 255° (WSW) 22:37:14 29.354- 29.394
VELOX 1 09 Feb 22:21:57 22:26:22 66° 75° (ENE) 22:30:48 145.980
UNISAT 6 09 Feb 22:29:56 22:34:12 56° 285° (WNW) 22:38:33 437.425
HUMSAT D 09 Feb 22:31:32 22:33:47 14° 266° (W) 22:36:03 437.325/437.525
AISAT 09 Feb 22:38:34 22:43:02 74° 258° (WSW) 22:47:32 437.250
POLYITAN 1 09 Feb 22:43:12 22:47:11 41° 99° (E) 22:51:10 437.675
QB50P2 09 Feb 22:43:50 22:47:51 44° 99° (E) 22:51:52 145.880/145.840
BUGSAT 1 09 Feb 22:46:52 22:49:45 19° 96° (E) 22:52:37 437.445
UKube-1 09 Feb 22:51:40 22:55:55 57° 259° (W) 23:00:12 .
ISS 09 Feb 22:55:15 22:58:28 67° 226° (SW) 23:01:40 145.825
CUBEBUG 1 09 Feb 22:58:26 23:02:46 54° 259° (W) 23:07:08 437.445
ESTCUBE 1 09 Feb 23:00:48 23:04:59 37° 261° (W) 23:09:12 437.505/2401.250
SPROUT 09 Feb 23:01:03 23:05:13 49° 74° (ENE) 23:09:21 437.525
DX 1 09 Feb 23:04:03 23:08:01 34° 261° (W) 23:12:01 434.975-435.025
